[[{"header":{"parameterUnit":"m.s-1","parameterCategory":1,"la1":30.2992,"la2":30.254,"lo1":-89.0895,"lo2":-89.0443,"dy":0.0025,"dx":0.0025,"nx":19,"ny":19,"refTime":"2026-05-05T21:00:00:Z","depth":0,"parameterNumber":2,"parameterNumberName":"U-component_of_WINDS"},"data":[0,0,0,4.2922,4.2924,4.3017,4.3017,4.3148,4.3149,0,0,0,0,0,0,0,0,0,0,0,4.2904,4.2905,4.2921,4.2924,4.3017,4.3017,4.3147,4.3149,0,0,0,0,0,0,0,0,0,0,0,4.2903,4.2904,4.2906,4.2924,4.3017,4.3017,4.3147,4.3072,0,0,0,0,0,0,0,0,0,0,4.298,4.2973,4.2904,4.2906,4.2925,4.3017,4.3017,4.3068,4.3077,4.3111,0,4.3146,0,4.315,4.3159,4.3159,0,0,0,4.2916,4.2966,4.2983,4.2906,4.2926,4.3017,4.2973,4.3073,4.3083,4.3123,4.3148,4.3153,4.3152,4.316,4.316,4.3387,4.3388,0,0,4.2911,4.2925,4.2976,4.2989,4.2979,4.297,4.2976,4.3079,4.3107,4.3149,4.3155,4.3154,4.3161,4.3162,4.3385,4.3387,0,0,0,4.2902,4.2922,4.2935,4.2985,4.3001,4.2973,4.298,4.3102,4.3105,4.3157,4.3156,4.3161,4.3163,4.3384,4.3386,4.3468,0,0,0,4.2898,4.2916,4.2934,4.2943,4.2999,4.3053,4.3001,4.3098,4.3109,4.3155,4.3161,4.3165,4.3382,4.3385,4.3463,4.3504,0,0,0,4.2894,4.2915,4.2932,4.2943,4.2984,4.3051,4.306,4.31,4.311,4.3159,4.3165,4.3381,4.3385,4.3458,4.3496,4.3566,0,0,0,4.2893,4.3005,4.2934,4.3058,4.2984,4.3102,4.3059,4.3147,4.32,4.3162,4.3383,4.3386,4.3456,4.3491,4.3561,4.3626,4.3655,0,0,4.3041,4.3023,4.3095,4.3034,4.3169,4.3087,4.3233,4.3268,4.326,4.3344,4.335,4.3464,4.3495,4.3565,4.3817,4.3841,0,0,0,4.3146,4.3197,4.323,4.3281,4.3312,4.334,4.3351,4.3364,4.3435,4.3307,4.3509,4.3527,4.3567,4.3598,4.3617,4.3649,4.3401,4.3401,4.3401,4.3373,4.3357,4.3474,4.3469,4.3519,4.3529,4.3567,4.3585,4.3555,4.3603,4.3627,4.3782,4.3819,4.3833,4.3867,4.3662,4.3662,4.3663,4.3663,4.3586,4.3655,4.3612,4.3709,4.369,4.3771,4.3784,4.3759,4.383,4.3763,4.3798,4.3724,4.3859,4.3888,4.3669,4.3668,4.3667,4.3666,4.3666,4.3731,4.3761,4.3776,4.3847,4.3903,4.3894,4.3963,4.3944,4.3927,4.3961,4.3983,4.3981,4.3975,4.3973,4.3974,4.3974,4.3975,4.3975,4.3976,4.3875,4.3889,4.3951,4.3991,4.4021,4.4057,4.4067,4.4095,4.412,4.41,4.41,4.4063,4.3877,4.3829,4.3984,4.3982,4.3981,4.3981,4.398,4.4093,4.404,4.4136,4.4166,4.421,4.4266,4.4241,4.4299,4.4319,4.4353,4.4308,4.4175,4.4154,4.4138,4.4098,4.4313,4.4313,4.4313,4.4313,4.4213,4.4202,4.4294,4.4342,4.4386,4.4374,4.4478,4.4487,4.4487,4.4498,4.4464,4.4411,4.4396,4.4384,4.4362,4.4324,4.4592,4.4593,4.4593,4.4345,4.4336,4.443,4.4432,4.4465,4.4493,4.459,4.4644,4.4634,4.4604,4.4505,4.4493,4.4406,4.4379,4.4345,4.4313,4.4243,0,0]},{"header":{"parameterUnit":"m.s-1","parameterCategory":1,"la1":30.2992,"la2":30.254,"lo1":-89.0895,"lo2":-89.0443,"dy":0.0025,"dx":0.0025,"nx":19,"ny":19,"refTime":"2026-05-05T21:00:00:Z","depth":0,"parameterNumber":3,"parameterNumberName":"V-component_of_WINDS"},"data":[0,0,0,6.1883,6.1887,6.2064,6.2064,6.229,6.2292,0,0,0,0,0,0,0,0,0,0,0,6.1835,6.1836,6.1883,6.1887,6.2063,6.2064,6.229,6.2292,0,0,0,0,0,0,0,0,0,0,0,6.1834,6.1836,6.1838,6.1888,6.2063,6.2064,6.2289,6.2155,0,0,0,0,0,0,0,0,0,0,6.1984,6.1943,6.1835,6.1838,6.1889,6.2063,6.2064,6.2149,6.2164,6.2212,0,6.2258,0,6.2279,6.2308,6.2309,0,0,0,6.1884,6.1931,6.1976,6.1838,6.1891,6.2063,6.1983,6.2157,6.2174,6.2231,6.2262,6.227,6.2283,6.2309,6.231,6.2608,6.2609,0,0,6.1874,6.1868,6.1964,6.1987,6.1963,6.1977,6.1988,6.2167,6.2198,6.2262,6.2275,6.2287,6.2311,6.2313,6.2606,6.2608,0,0,0,6.1848,6.1861,6.1901,6.1978,6.201,6.1983,6.1995,6.219,6.2204,6.2278,6.2289,6.2312,6.2315,6.2605,6.2607,6.268,0,0,0,6.1842,6.1846,6.1897,6.1895,6.2006,6.2103,6.2015,6.2192,6.2212,6.2288,6.2312,6.2317,6.2603,6.2606,6.2674,6.2715,0,0,0,6.1822,6.1844,6.1871,6.1894,6.197,6.21,6.2124,6.2196,6.222,6.2309,6.2318,6.2602,6.2605,6.2669,6.2707,6.2792,0,0,0,6.1797,6.1932,6.1872,6.2026,6.1969,6.2145,6.2123,6.2254,6.2339,6.2313,6.2603,6.2607,6.2668,6.2702,6.2787,6.2864,6.2895,0,0,6.1963,6.1951,6.2043,6.1994,6.218,6.2118,6.2314,6.2396,6.2408,6.2539,6.2547,6.2676,6.2706,6.2791,6.3073,6.3098,0,0,0,6.2093,6.2159,6.2209,6.2292,6.2359,6.242,6.2474,6.2504,6.2616,6.2476,6.273,6.2748,6.2798,6.2835,6.2856,6.2899,6.2623,6.2623,6.2623,6.2319,6.233,6.2481,6.2514,6.2593,6.2647,6.2712,6.2761,6.2747,6.2807,6.2846,6.3016,6.3059,6.3075,6.312,6.2887,6.2887,6.2888,6.2888,6.2563,6.2658,6.2638,6.2778,6.2787,6.2903,6.2959,6.2945,6.3053,6.2987,6.3032,6.2959,6.3103,6.3142,6.2893,6.2892,6.2892,6.2891,6.2891,6.2713,6.276,6.2797,6.2917,6.3008,6.3034,6.3139,6.3143,6.3147,6.3191,6.3233,6.3232,6.3231,6.3211,6.3211,6.3212,6.3212,6.3213,6.3213,6.2854,6.2893,6.2983,6.3067,6.312,6.3191,6.3245,6.3297,6.3355,6.3349,6.3349,6.3329,6.3115,6.3062,6.3222,6.3221,6.322,6.3219,6.3218,6.3099,6.3045,6.3184,6.3238,6.3336,6.3426,6.3429,6.3534,6.3576,6.3628,6.3598,6.3439,6.3427,6.341,6.3366,6.3595,6.3595,6.3596,6.3596,6.3226,6.322,6.3364,6.345,6.3534,6.3552,6.3706,6.3749,6.3785,6.3811,6.3778,6.372,6.3702,6.37,6.3676,6.3635,6.3929,6.3929,6.3929,6.3377,6.338,6.3513,6.355,6.3627,6.3692,6.3837,6.3933,6.3962,6.3943,6.3832,6.3818,6.3723,6.3692,6.3672,6.3636,6.356,0,0]}]]